Location: Parkway Village
(35.0643°N, 89.9062°W)
Time: 16:23:46
(UTC+00:00)

BlueWalker 3 - Pass Details

Date: 23 August 2024
Orbit: 475 x 487 km, 53.2° (Epoch: 17 September)

Event Time Altitude Azimuth Distance (km) Brightness Sun altitude
Rises 02:30:40 0° 233° (SW) 2,523 5.8 -21.8°
Reaches altitude 10° 02:32:51 10° 238° (WSW) 1,650 4.8 -22.2°
Maximum altitude 02:36:31 58° 318° (NW) 569 2.4 -22.8°
Enters shadow 02:37:39 38° 16° (NNE) 746 2.8 -23.0°
